Tracking 29892 objects as of 21-Nov-2024
HD Live streaming from Space Station
objects crossing your sky now

SL-8 R/B

Track SL-8 R/B now!
10-day predictions


NORAD ID: 8597
Int'l Code: 1976-005B
Perigee: 969.5 km
Apogee: 1,005.3 km
Inclination: 83.0 °
Period: 104.7 minutes
Semi major axis: 7358 km
RCS: 5.1512 m2 (large)
Launch date: January 20, 1976
Source: Commonwealth of Independent States (former USSR) (CIS)
Launch site: PLESETSK MISSILE AND SPACE COMPLEX (PKMTR)

Note: This is a ROCKET BODY
Your satellite tracking list
Your tracking list is empty




NASA's NSSDC Master Catalog

Two Line Element Set (TLE):
1  8597U 76005B   24326.20250637  .00000129  00000-0  11854-3 0  9993
2  8597  82.9745 222.1976 0024312 205.3646 319.2714 13.75395258450108
Source of the keplerian elements: AFSPC